Time_in_sec,Latitude,Longitude,Altitude,Nbsat,valid_data
1312471597.59529972,47.37622070,8.55027199,527.96020508,3,1
1312471685.03643227,47.37612152,8.55034351,608.72448730,2,1
1312471685.09529471,47.37612152,8.55034542,609.17254639,2,1
1312471685.14330292,47.37612152,8.55034542,609.23242188,2,1
1312471685.18732858,47.37612152,8.55034542,609.28222656,2,1
1312471685.23530841,47.37612152,8.55034542,609.32208252,2,1
1312471685.29548979,47.37612152,8.55034542,609.37182617,2,1
1312471685.34333730,47.37612152,8.55034637,609.85845947,2,1
1312471685.39547920,47.37612152,8.55034637,609.90960693,2,1
1312471685.44347143,47.37612152,8.55034637,609.96069336,2,1
1312471685.49527645,47.37612152,8.55034637,610.01171875,2,1
1312471685.54368520,47.37611771,8.55034637,610.06268311,2,1
1312471685.59645724,47.37611771,8.55034637,610.53442383,2,1
1312471685.64342046,47.37611771,8.55034637,610.58673096,2,1
1312471685.69642115,47.37611771,8.55034637,610.63903809,2,1
1312471685.74329543,47.37611771,8.55034637,610.69128418,2,1
1312471685.79528618,47.37611771,8.55034637,610.74346924,2,1
1312471685.84333754,47.37611771,8.55034733,611.18762207,2,1
1312471685.89677978,47.37611771,8.55034733,611.24108887,2,1
1312471685.94390225,47.37611771,8.55034733,611.29443359,2,1
1312471685.99540496,47.37611771,8.55034733,611.34783936,2,1
1312471686.04339743,47.37611771,8.55034733,611.40112305,2,1
1312471686.09540296,47.37611771,8.55034637,611.80035400,2,1
1312471686.14441514,47.37611389,8.55034637,611.85473633,2,1
1312471686.19541669,47.37611389,8.55034637,611.90905762,2,1
1312471686.24440622,47.37611389,8.55034637,611.96331787,2,1
1312471686.29528761,47.37611389,8.55034637,612.01757812,2,1
1312471686.34442163,47.37611389,8.55034637,612.39410400,2,1
1312471686.39529967,47.37611389,8.55034637,612.44934082,2,1
1312471686.44341159,47.37611389,8.55034733,612.50451660,2,1
1312471686.49643993,47.37611389,8.55034733,612.55969238,2,1
1312471686.54329515,47.37611389,8.55034733,612.61480713,2,1
1312471686.59644890,47.37611389,8.55034733,612.96258545,2,1
1312471686.64328861,47.37611008,8.55034733,613.01861572,2,1
1312471686.69549561,47.37611008,8.55034733,613.07458496,2,1
1312471686.74328780,47.37611008,8.55034733,613.13055420,2,1
1312471686.79531860,47.37611008,8.55034733,613.18646240,2,1
1312471686.84333491,47.37611008,8.55034637,613.46844482,2,1
1312471686.89645553,47.37611008,8.55034637,613.52502441,2,1
1312471686.94329548,47.37611008,8.55034733,613.58154297,2,1
1312471686.99641109,47.37611008,8.55034733,613.63812256,2,1
1312471687.04328060,47.37610626,8.55034733,613.69458008,2,1
1312471687.09530878,47.37610626,8.55034542,613.91766357,2,1
1312471687.14331985,47.37610626,8.55034542,613.97460938,2,1
1312471687.19542789,47.37610626,8.55034542,614.03155518,2,1
1312471687.24332786,47.37610626,8.55034542,614.08850098,2,1
1312471687.29542732,47.37610626,8.55034542,614.14538574,2,1
1312471687.34336567,47.37610626,8.55034447,614.31695557,2,1
1312471687.39636421,47.37610626,8.55034447,614.37408447,2,1
1312471687.44353318,47.37610245,8.55034447,614.43121338,2,1
1312471687.49627566,47.37610245,8.55034447,614.48828125,2,1
1312471687.54331779,47.37610245,8.55034447,614.54534912,2,1
1312471687.59531283,47.37610245,8.55034256,614.67541504,2,1
1312471687.64432502,47.37610245,8.55034256,614.73260498,2,1
1312471687.69233584,47.37610245,8.55034351,614.78979492,2,1
1312471687.74328709,47.37610245,8.55034351,614.84692383,2,1
1312471687.79528618,47.37610245,8.55034351,614.90399170,2,1
1312471687.84476471,47.37609863,8.55034161,615.00506592,2,1
1312471687.89528728,47.37609863,8.55034161,615.06225586,2,1
1312471687.94332457,47.37609863,8.55034161,615.11944580,2,1
1312471687.99643159,47.37609863,8.55034161,615.17657471,2,1
1312471688.04330611,47.37609863,8.55034161,615.23358154,2,1
1312471688.09532452,47.37609863,8.55034065,615.27581787,2,1
1312471688.14329600,47.37609863,8.55034065,615.33276367,2,1
1312471688.19529724,47.37609863,8.55034065,615.38964844,2,1
1312471688.24328709,47.37609863,8.55034065,615.44653320,2,1
1312471688.29531288,47.37609863,8.55034065,615.50335693,2,1
1312471688.34329224,47.37609482,8.55033875,615.48834229,2,1
1312471688.39528370,47.37609482,8.55033875,615.54479980,2,1
1312471688.44342041,47.37609482,8.55033875,615.60119629,2,1
1312471688.49296832,47.37609482,8.55033875,615.65759277,2,1
1312471688.54338217,47.37609482,8.55033875,615.71398926,2,1
1312471688.59532309,47.37609100,8.55033684,615.66394043,2,1
1312471688.64330387,47.37609100,8.55033684,615.71984863,2,1
1312471688.69529057,47.37609100,8.55033684,615.77569580,2,1
1312471688.74328756,47.37609100,8.55033684,615.83154297,2,1
1312471688.79531527,47.37609100,8.55033684,615.88732910,2,1
1312471688.84341168,47.37609100,8.55033588,615.80950928,2,1
1312471688.89553165,47.37609100,8.55033588,615.86480713,2,1
1312471688.94334364,47.37609100,8.55033588,615.92010498,2,1
1312471688.99283552,47.37608719,8.55033588,615.97528076,2,1
1312471689.04331779,47.37608719,8.55033588,616.03045654,2,1
1312471689.09528613,47.37608719,8.55033398,615.85870361,2,1
1312471689.14442635,47.37608719,8.55033398,615.91302490,2,1
1312471689.19535565,47.37608719,8.55033398,615.96728516,2,1
1312471689.24436784,47.37608719,8.55033398,616.02154541,2,1
1312471689.29633069,47.37608719,8.55033398,616.07568359,3,1
1312471689.34442472,47.37608719,8.55033302,615.81140137,3,1
1312471689.39530492,47.37608719,8.55033302,615.86450195,3,1
1312471689.44329500,47.37608719,8.55033302,615.91754150,3,1
1312471689.49539423,47.37608719,8.55033302,615.97058105,3,1
1312471689.54341769,47.37608337,8.55033302,616.02355957,3,1
1312471689.59593892,47.37608337,8.55033112,615.68103027,3,1
1312471689.64328122,47.37608337,8.55033112,615.73260498,3,1
1312471689.69540691,47.37608337,8.55033112,615.78417969,3,1
1312471689.74340606,47.37608337,8.55033112,615.83569336,3,1
1312471689.79542160,47.37608337,8.55033112,615.88714600,3,1
1312471689.84341645,47.37608337,8.55032825,615.48687744,3,1
1312471689.89627957,47.37608337,8.55032825,615.53680420,3,1
1312471689.94342232,47.37608337,8.55032825,615.58660889,3,1
1312471689.99239397,47.37607956,8.55032825,615.63647461,3,1
1312471690.04330468,47.37607956,8.55032825,615.68621826,3,1
1312471690.09533763,47.37607956,8.55032635,615.27105713,3,1
1312471690.14442348,47.37607956,8.55032635,615.31927490,3,1
1312471690.19244170,47.37607956,8.55032635,615.36749268,3,1
1312471690.24330330,47.37607956,8.55032635,615.41558838,3,1
1312471690.29530001,47.37607956,8.55032635,615.46368408,3,1
1312471690.34327745,47.37607956,8.55032349,615.01806641,3,1
1312471690.39539599,47.37607956,8.55032349,615.06445312,3,1
1312471690.44332767,47.37607956,8.55032349,615.11083984,3,1
1312471690.49739099,47.37607956,8.55032349,615.15716553,3,1
1312471690.54437208,47.37607956,8.55032349,615.20343018,3,1
1312471690.59538817,47.37607956,8.55032063,614.71844482,3,1
1312471690.64337802,47.37607574,8.55032063,614.76287842,3,1
1312471690.69234300,47.37607574,8.55032063,614.80725098,3,1
1312471690.74428749,47.37607574,8.55032063,614.85162354,3,1
1312471690.79533005,47.37607574,8.55032063,614.89593506,3,1
1312471690.84328723,47.37607574,8.55031776,614.39306641,3,1
1312471690.89532995,47.37607574,8.55031776,614.43554688,3,1
1312471690.94327831,47.37607574,8.55031776,614.47802734,3,1
1312471690.99643135,47.37607574,8.55031776,614.52038574,3,1
1312471691.04329062,47.37607574,8.55031776,614.56274414,3,1
1312471691.09530044,47.37607574,8.55031490,614.01361084,3,1
1312471691.14327693,47.37607574,8.55031490,614.05401611,3,1
1312471691.19533134,47.37607574,8.55031490,614.09436035,3,1
1312471691.24340749,47.37607574,8.55031490,614.13464355,3,1
1312471691.29534268,47.37607574,8.55031490,614.17492676,3,1
1312471691.34341002,47.37607574,8.55031300,613.57281494,3,1
1312471691.39533067,47.37607574,8.55031300,613.61096191,3,1
1312471691.44729590,47.37607193,8.55031204,613.64898682,3,1
1312471691.49526858,47.37607193,8.55031204,613.68701172,3,1
1312471691.54339838,47.37607193,8.55031204,613.72497559,3,1
1312471691.59541869,47.37607193,8.55031013,613.08007812,3,1
1312471691.64331603,47.37607193,8.55031013,613.11578369,3,1
1312471691.69643998,47.37607193,8.55031013,613.15142822,3,1
1312471691.74441600,47.37607193,8.55031013,613.18707275,3,1
1312471691.79642248,47.37607193,8.55031013,613.22265625,3,1
1312471691.84333873,47.37607193,8.55030823,612.53436279,3,1
1312471691.89527678,47.37607193,8.55030823,612.56750488,3,1
1312471691.94329882,47.37607193,8.55030823,612.60064697,3,1
1312471691.99685740,47.37607193,8.55030727,612.63372803,3,1
1312471692.04329085,47.37607193,8.55030727,612.66674805,3,1
1312471692.09642911,47.37607193,8.55030537,611.96112061,3,1
1312471692.14432669,47.37607193,8.55030537,611.99176025,3,1
1312471692.19533896,47.37607193,8.55030537,612.02233887,3,1
1312471692.24330854,47.37607193,8.55030537,612.05285645,3,1
1312471692.29528832,47.37607193,8.55030537,612.08337402,3,1
1312471692.34329128,47.37607193,8.55030346,611.30358887,3,1
1312471692.39532280,47.37607193,8.55030346,611.33142090,3,1
1312471692.44332790,47.37607193,8.55030346,611.35925293,3,1
1312471692.49634242,47.37607193,8.55030346,611.38696289,3,1
1312471692.54332352,47.37607193,8.55030346,611.41473389,3,1
1312471692.59542131,47.37607193,8.55030060,610.58087158,3,1
1312471692.64430761,47.37607193,8.55030060,610.60577393,3,1
1312471692.69629765,47.37607193,8.55030060,610.63067627,3,1
1312471692.74331498,47.37607193,8.55030060,610.65551758,3,1
1312471692.79532647,47.37607193,8.55030060,610.68029785,3,1
1312471692.84342408,47.37607193,8.55029869,609.81243896,3,1
1312471692.89642906,47.37607193,8.55029869,609.83428955,3,1
1312471692.94443178,47.37607193,8.55029869,609.85614014,3,1
1312471692.99630833,47.37607193,8.55029869,609.87786865,3,1
1312471693.04328012,47.37607193,8.55029869,609.89953613,3,1
1312471693.09530950,47.37607193,8.55029583,609.00689697,3,1
1312471693.14359832,47.37607193,8.55029583,609.02557373,3,1
1312471693.19541812,47.37607193,8.55029583,609.04425049,3,1
1312471693.24334574,47.37607193,8.55029583,609.06286621,3,1
1312471693.29529238,47.37607193,8.55029583,609.08142090,3,1
1312471693.34429240,47.37607193,8.55029392,608.17065430,3,1
1312471693.39529347,47.37607193,8.55029392,608.18615723,3,1
1312471693.44328904,47.37607193,8.55029297,608.20166016,3,1
1312471693.49931192,47.37607193,8.55029297,608.21710205,3,1
1312471693.54329967,47.37607193,8.55029297,608.23248291,3,1
1312471693.59527874,47.37607574,8.55029011,607.30560303,3,1
1312471693.64327860,47.37607574,8.55029011,607.31793213,3,1
1312471693.69640064,47.37607574,8.55029011,607.33020020,3,1
1312471693.74443984,47.37607574,8.55029011,607.34240723,3,1
1312471693.79239893,47.37607574,8.55029011,607.35461426,3,1
1312471693.84428859,47.37607574,8.55028915,606.43975830,3,1
1312471693.89235187,47.37607574,8.55028820,606.44897461,3,1
1312471693.94332886,47.37607574,8.55028820,606.45812988,3,1
1312471693.99650693,47.37607574,8.55028820,606.46722412,3,1
1312471694.04333997,47.37607574,8.55028820,606.47631836,3,1
1312471694.09531879,47.37607956,8.55028629,605.53936768,3,1
1312471694.14328790,47.37607956,8.55028629,605.54534912,3,1
1312471694.19528818,47.37607956,8.55028629,605.55133057,3,1
1312471694.24330854,47.37607956,8.55028629,605.55725098,3,1
1312471694.29530931,47.37607956,8.55028534,605.56311035,3,1
1312471694.34729385,47.37607956,8.55028343,604.60424805,3,1
1312471694.39530754,47.37607956,8.55028343,604.60699463,3,1
1312471694.44328475,47.37607956,8.55028248,604.60961914,3,1
1312471694.49628305,47.37607956,8.55028248,604.61224365,3,1
1312471694.54328918,47.37607956,8.55028248,604.61486816,3,1
1312471694.59572482,47.37607956,8.55027962,603.66143799,3,1
1312471694.64331651,47.37607956,8.55027962,603.66094971,3,1
1312471694.69883871,47.37607956,8.55027962,603.66040039,3,1
1312471694.74329638,47.37607956,8.55027962,603.65985107,3,1
1312471694.79540348,47.37607956,8.55027962,603.65924072,3,1
1312471694.84329462,47.37607956,8.55027771,602.70098877,3,1
1312471694.89530134,47.37607956,8.55027771,602.69726562,3,1
1312471694.94329429,47.37607956,8.55027771,602.69348145,3,1
1312471694.99551940,47.37607956,8.55027771,602.68963623,3,1
1312471695.04327941,47.37607956,8.55027771,602.68579102,3,1
1312471695.09524965,47.37608337,8.55027580,601.73364258,3,1
1312471695.14332247,47.37608337,8.55027580,601.72662354,3,1
1312471695.19550204,47.37608337,8.55027485,601.71960449,3,1
1312471695.24329233,47.37608337,8.55027485,601.71258545,3,1
1312471695.29554272,47.37608337,8.55027485,601.70544434,3,1
1312471695.34353590,47.37608337,8.55027390,600.76354980,3,1
1312471695.39529872,47.37608337,8.55027390,600.75341797,3,1
1312471695.44333839,47.37608337,8.55027390,600.74322510,3,1
1312471695.49527740,47.37608337,8.55027294,600.73303223,3,1
1312471695.54380155,47.37608337,8.55027294,600.72277832,3,1
1312471695.59534073,47.37608719,8.55027103,599.78906250,3,1
1312471695.64331913,47.37608719,8.55027103,599.77575684,3,1
1312471695.69534612,47.37608719,8.55027103,599.76245117,3,1
1312471695.74327922,47.37608719,8.55027103,599.74908447,3,1
1312471695.79532504,47.37608719,8.55027103,599.73571777,3,1
1312471695.84446025,47.37608719,8.55026913,598.81427002,3,1
1312471695.89526463,47.37608719,8.55026913,598.79791260,3,1
1312471695.94446015,47.37608719,8.55026913,598.78155518,3,1
1312471695.99552798,47.37608719,8.55026913,598.76513672,3,1
1312471696.04333496,47.37608719,8.55026817,598.74865723,3,1
1312471696.09532237,47.37608719,8.55026722,597.83764648,3,1
1312471696.14329529,47.37609100,8.55026722,597.81829834,3,1
1312471696.19593334,47.37609100,8.55026722,597.79888916,3,1
1312471696.24444652,47.37609100,8.55026722,597.77947998,3,1
1312471696.29832172,47.37609100,8.55026722,597.76000977,3,1
1312471696.34533334,47.37609100,8.55026436,596.84844971,3,1
1312471696.39647317,47.37609100,8.55026436,596.82611084,3,1
1312471696.44535613,47.37609100,8.55026436,596.80364990,3,1
1312471696.49640942,47.37609100,8.55026436,596.78125000,3,1
1312471696.54434490,47.37609100,8.55026436,596.75872803,3,1
1312471696.59632254,47.37609100,8.55026245,595.84716797,3,1
1312471696.64447117,47.37609100,8.55026245,595.82183838,3,1
1312471696.69226766,47.37609100,8.55026245,595.79644775,3,1
1312471696.74529576,47.37609100,8.55026150,595.77099609,3,1
1312471696.79728842,47.37609100,8.55026150,595.74548340,3,1
1312471696.84434938,47.37609482,8.55025959,594.84020996,3,1
1312471696.89635611,47.37609482,8.55025959,594.81188965,3,1
1312471696.94331241,47.37609482,8.55025959,594.78350830,3,1
1312471696.99638224,47.37609482,8.55025959,594.75512695,3,1
1312471697.04517865,47.37609482,8.55025959,594.72668457,3,1
1312471697.09946132,47.37609482,8.55025864,593.83544922,3,1
1312471697.14442205,47.37609482,8.55025768,593.80426025,3,1
1312471697.19644952,47.37609482,8.55025768,593.77301025,3,1
1312471697.24331808,47.37609482,8.55025768,593.74176025,3,1
1312471697.29644299,47.37609863,8.55025768,593.71044922,3,1
1312471697.34341908,47.37609863,8.55025578,592.80603027,3,1
1312471697.39641738,47.37609863,8.55025578,592.77185059,3,1
1312471697.44445395,47.37609863,8.55025578,592.73767090,3,1
1312471697.49528360,47.37609863,8.55025578,592.70343018,3,1
1312471697.54331660,47.37609863,8.55025482,592.66912842,3,1
1312471697.59541774,47.37609863,8.55025387,591.76391602,3,1
1312471697.64329791,47.37609863,8.55025387,591.72674561,3,1
1312471697.69540644,47.37609863,8.55025387,591.68957520,3,1
1312471697.74332666,47.37609863,8.55025387,591.65240479,3,1
1312471697.79540563,47.37609863,8.55025387,591.61511230,3,1
1312471697.84443450,47.37609863,8.55025291,590.69946289,3,1
1312471697.89531112,47.37609863,8.55025291,590.65936279,3,1
1312471697.94444060,47.37609863,8.55025291,590.61920166,3,1
1312471697.99642181,47.37610245,8.55025196,590.57897949,3,1
1312471698.04436326,47.37610245,8.55025196,590.53869629,3,1
1312471698.09531665,47.37610245,8.55025196,589.63122559,3,1
1312471698.14340138,47.37610245,8.55025196,589.58813477,3,1
1312471698.19541764,47.37610245,8.55025101,589.54504395,3,1
1312471698.24341369,47.37610245,8.55025101,589.50189209,3,1
1312471698.29787350,47.37610245,8.55025101,589.45867920,3,1
1312471698.34731627,47.37610245,8.55025005,588.55413818,3,1
1312471698.39531159,47.37610245,8.55025005,588.50811768,3,1
1312471698.44436479,47.37610245,8.55025005,588.46209717,3,1
1312471698.49644351,47.37610245,8.55025005,588.41601562,3,1
1312471698.54332376,47.37610245,8.55025005,588.36993408,3,1
1312471698.59536314,47.37610626,8.55024815,587.46026611,3,1
1312471698.64341187,47.37610626,8.55024815,587.41131592,3,1
1312471698.69533467,47.37610626,8.55024815,587.36236572,3,1
1312471698.74444628,47.37610626,8.55024815,587.31335449,3,1
1312471698.79536891,47.37610626,8.55024815,587.26428223,3,1
1312471698.84441566,47.37610626,8.55024719,586.37536621,3,1
1312471698.89243412,47.37610626,8.55024719,586.32360840,3,1
1312471698.94402790,47.37610626,8.55024719,586.27178955,3,1
1312471698.99633217,47.37610626,8.55024719,586.21997070,3,1
1312471699.04345179,47.37611008,8.55024719,586.16809082,3,1
1312471699.09820056,47.37611008,8.55024624,585.27893066,3,1
1312471699.14443302,47.37611008,8.55024529,585.22430420,3,1
1312471699.19577813,47.37611008,8.55024529,585.16967773,3,1
1312471699.24435210,47.37611008,8.55024529,585.11492920,3,1
1312471699.29233432,47.37611008,8.55024529,585.06018066,3,1
1312471699.34442616,47.37611389,8.55024529,584.17645264,3,1
1312471699.39235687,47.37611389,8.55024529,584.11895752,3,1
1312471699.44343662,47.37611389,8.55024529,584.06152344,3,1
1312471699.49274373,47.37611389,8.55024529,584.00396729,3,1
1312471699.54441977,47.37611389,8.55024433,583.94635010,3,1
1312471699.59236240,47.37611389,8.55024338,583.05371094,3,1
1312471699.64536619,47.37611389,8.55024338,582.99340820,3,1
1312471699.69533110,47.37611389,8.55024338,582.93304443,3,1
1312471699.74532700,47.37611771,8.55024338,582.87261963,3,1
1312471699.79633594,47.37611771,8.55024338,582.81213379,3,1
1312471699.84531045,47.37611771,8.55024242,581.90948486,3,1
1312471699.89256692,47.37611771,8.55024242,581.84625244,3,1
1312471699.94439673,47.37611771,8.55024242,581.78295898,3,1
1312471699.99612617,47.37611771,8.55024147,581.71966553,3,1
1312471700.04435611,47.37611771,8.55024147,581.65631104,3,1
1312471700.09371376,47.37612152,8.55024147,580.74041748,3,1
1312471700.14441442,47.37612152,8.55024147,580.67425537,3,1
1312471700.19641471,47.37612152,8.55024052,580.60809326,3,1
1312471700.24433255,47.37612152,8.55024052,580.54187012,3,1
1312471700.29529524,47.37612152,8.55024052,580.47564697,3,1
1312471700.34335160,47.37612152,8.55023956,579.55749512,3,1
1312471700.39642787,47.37612152,8.55023956,579.48846436,3,1
1312471700.44345784,47.37612152,8.55023956,579.41937256,3,1
1312471700.49643254,47.37612152,8.55023956,579.35021973,3,1
1312471700.54332662,47.37612534,8.55023956,579.28106689,3,1
1312471700.59643865,47.37612534,8.55023861,578.37292480,3,1
1312471700.64332342,47.37612534,8.55023861,578.30102539,3,1
1312471700.69528699,47.37612534,8.55023861,578.22912598,3,1
1312471700.74329638,47.37612534,8.55023861,578.15716553,3,1
1312471700.79642844,47.37612534,8.55023861,578.08514404,3,1
1312471700.84446383,47.37612915,8.55023766,577.18487549,3,1
1312471700.89541960,47.37612915,8.55023766,577.11016846,3,1
1312471700.94445181,47.37612915,8.55023766,577.03540039,3,1
1312471700.99532413,47.37612915,8.55023670,576.96063232,3,1
1312471701.04446626,47.37612915,8.55023670,576.88580322,3,1
1312471701.09534264,47.37612915,8.55023575,575.98345947,3,1
1312471701.14442873,47.37613297,8.55023575,575.90594482,3,1
1312471701.19550252,47.37613297,8.55023575,575.82836914,3,1
1312471701.24333739,47.37613297,8.55023575,575.75073242,3,1
1312471701.29528880,47.37613297,8.55023575,575.67309570,4,1
1312471701.34332609,47.37613297,8.55023575,574.77832031,4,1
1312471701.39540434,47.37613297,8.55023575,574.69799805,4,1
1312471701.44332552,47.37613297,8.55023479,574.61761475,4,1
1312471701.49528456,47.37613297,8.55023479,574.53723145,4,1
1312471701.54341269,47.37613297,8.55023479,574.45678711,4,1
1312471701.59540677,47.37613678,8.55023575,573.56384277,4,1
1312471701.64340711,47.37613678,8.55023479,573.48077393,4,1
1312471701.69540548,47.37613678,8.55023479,573.39770508,4,1
1312471701.74340463,47.37613678,8.55023479,573.31451416,4,1
1312471701.79541540,47.37613678,8.55023479,573.23138428,4,1
1312471701.84341788,47.37614059,8.55023384,572.33203125,4,1
1312471701.89530635,47.37614059,8.55023384,572.24627686,4,1
1312471701.94331932,47.37614059,8.55023384,572.16040039,4,1
1312471701.99540949,47.37614059,8.55023384,572.07452393,4,1
1312471702.04342055,47.37614059,8.55023384,571.98858643,4,1
1312471702.09541845,47.37614059,8.55023289,571.09155273,4,1
1312471702.14449191,47.37614059,8.55023289,571.00305176,4,1
1312471702.19542050,47.37614441,8.55023289,570.91442871,4,1
1312471702.24330306,47.37614441,8.55023289,570.82580566,4,1
1312471702.29240346,47.37614441,8.55023289,570.73712158,4,1
1312471702.34437728,47.37614441,8.55023193,569.82708740,4,1
1312471702.39543438,47.37614441,8.55023193,569.73577881,4,1
1312471702.44331765,47.37614441,8.55023193,569.64440918,4,1
1312471702.49567604,47.37614441,8.55023193,569.55297852,4,1
1312471702.54441094,47.37614441,8.55023193,569.46154785,4,1
1312471702.59542418,47.37614822,8.55023193,568.55444336,4,1
1312471702.64439631,47.37614822,8.55023193,568.46032715,4,1
1312471702.69246888,47.37614822,8.55023193,568.36614990,4,1
1312471702.74435019,47.37614822,8.55023193,568.27197266,4,1
1312471702.79563355,47.37614822,8.55023193,568.17773438,4,1
1312471702.84329534,47.37615204,8.55023098,567.28179932,4,1
1312471702.89633989,47.37615204,8.55023098,567.18499756,4,1
1312471702.94327998,47.37615204,8.55023098,567.08813477,4,1
1312471702.99535489,47.37615204,8.55023098,566.99121094,4,1
1312471703.04457092,47.37615204,8.55023098,566.89428711,4,1
1312471703.09930754,47.37615204,8.55023098,565.99981689,4,1
1312471703.14332676,47.37615585,8.55023098,565.90026855,4,1
1312471703.18732572,47.37615585,8.55023098,565.80065918,4,1
1312471703.23537087,47.37615585,8.55023098,565.72094727,4,1
1312471703.29643106,47.37615585,8.55023098,565.62127686,4,1
1312471703.33631516,47.37615585,8.55023098,564.72961426,4,1
1312471703.38435459,47.37615585,8.55023098,564.64788818,4,1
1312471703.43631220,47.37615967,8.55023098,564.54571533,4,1
1312471703.48496389,47.37615967,8.55023098,564.44348145,4,1
1312471703.53629422,47.37615967,8.55023003,564.34118652,4,1
1312471703.58464003,47.37615967,8.55023003,563.47937012,4,1
1312471703.63627720,47.37615967,8.55023003,563.37463379,4,1
1312471703.68442678,47.37615967,8.55023003,563.26989746,4,1
1312471703.73544335,47.37615967,8.55023003,563.16510010,4,1
